Regional Weather Roundup
Issued by NWS

Home | Current Version | Previous Version | Graphics & Text | Print | Product List | Glossary Off
Versions: 1 2 3 4 5 6 7 8 9 10 11 12 13 14 15 16 17 18 19 20 21 22 23 24 25 26 27 28 29 30 31 32 33 34 35 36 37 38 39 40 41 42 43 44 45 46 47 48 49 50

000
ASUS43 KMPX 231610
RWRMN
WEATHER ROUNDUP FOR MINNESOTA
NATIONAL WEATHER SERVICE TWIN CITIES/CHANHASSEN MN
1100 AM CDT SAT AUG 23 2014


NOTE: "FAIR" INDICATES FEW OR NO CLOUDS BELOW 12,000 FEET WITH NO
SIGNIFICANT WEATHER AND/OR OBSTRUCTIONS TO VISIBILITY. N/A MEANS
CURRENT SKY AND/OR WEATHER CONDITIONS ARE NOT AVAILABLE.

MNZ060>063-068>070-231700-
   Twin Cities Metro

CITY           SKY/WX    TMP DP  RH WIND       PRES   REMARKS
TWIN CITIES    CLOUDY    70  67  90 NE10      29.96F
ST PAUL        CLOUDY    70  66  87 E8        29.97F
CRYSTAL        CLOUDY    71  66  84 NE7       29.96F
BLAINE         CLOUDY    72  70  94 E8        29.98F
LAKEVILLE      LGT RAIN  66  66 100 E8        29.95F
EDEN PRAIRIE   CLOUDY    71  67  87 E12       29.94F FOG
SOUTH ST PAUL  CLOUDY    70  66  88 E6        29.97F
LAKE ELMO      CLOUDY    70  66  88 E8        29.99F
$$
MNZ001>005-007-008-013>017-022>024-027-028-231700-
   Northwest Minnesota

CITY           SKY/WX    TMP DP  RH WIND       PRES   REMARKS
BEMIDJI        CLOUDY    67  65  93 E9        30.05S
HALLOCK        CLOUDY    64  61  88 NE9       30.06S
ROSEAU         PTSUNNY   70  64  83 E12       30.07F
WARROAD        PTSUNNY   70  66  88 NE9       30.08S
THIEF RVR FALL CLOUDY    70  66  88 NE10      30.04F
CROOKSTON      CLOUDY    68  66  94 E6        30.03S
FOSSTON        CLOUDY    70  66  88 NE5       30.04S
DETROIT LAKES  CLOUDY    70  64  83 E9        30.02S
MOORHEAD       DRIZZLE   73  72  94 E7        29.99F
PARK RAPIDS    CLOUDY    68  64  87 E7        30.04R
MAHNOMEN       CLOUDY    71  67  89 E7        30.02S
$$
MNZ006-009>011-018-025>026-231700-
   North Central Minnesota

CITY           SKY/WX    TMP DP  RH WIND       PRES   REMARKS
BAUDETTE       CLOUDY    71  66  84 E8        30.08S
FLAG ISLAND    PTSUNNY   72  64  78 E6        30.07F
INTL FALLS     CLOUDY    70  64  81 E7        30.09S
WASKISH        CLOUDY    72  68  88 E9        30.07R
BIG FORK       PTSUNNY   70  64  83 E5        30.09R
LONGVILLE      CLOUDY    66  63  88 E5        30.05S
GRAND RAPIDS   CLOUDY    66  63  88 E7        30.07F
CRANE LAKE     CLOUDY    70  63  78 NE3       30.11S
ORR            CLOUDY    72  61  68 E3        30.07S
COOK           CLOUDY    70  63  78 E5        30.10R
WALKER         CLOUDY    68  64  86 NE6       30.04F
$$
MNZ012-019>021-037-231700-
   Northeast Minnesota

CITY           SKY/WX    TMP DP  RH WIND       PRES   REMARKS
DULUTH         DRIZZLE   65  61  87 E9        30.08R FOG
ELY            CLOUDY    72  59  64 E6        30.10R
HIBBING        CLOUDY    69  62  78 E7        30.08S
EVELETH        CLOUDY    64  61  88 E6        30.10S
DULUTH HARBOR  CLOUDY    63  61  94 NE10      30.07S
TWO HARBORS    CLOUDY    64  59  82 NE7       30.07S
SILVER BAY     PTSUNNY   63  63 100 NE8       30.08S FOG
GRAND MARAIS     N/A     65  60  84 NE7       30.09R
G MARAIS ARPRT CLOUDY    64  59  82 NE7       30.13R
$$
MNZ029>031-032-039>041-046>048-054>057-064-231700-
   West Central Minnesota

CITY           SKY/WX    TMP DP  RH WIND       PRES   REMARKS
FERGUS FALLS   CLOUDY    70  64  83 E10       29.98S
WHEATON        CLOUDY    66  64  94 E10       29.98R
MORRIS         CLOUDY    70  66  88 E15G22    29.95S
ALEXANDRIA     LGT RAIN  67  64  90 E13       30.01R
ELBOW LAKE     PTSUNNY   68  66  91 E9        29.98R
WADENA         CLOUDY    66  63  88 E10       30.02R
GLENWOOD       DRIZZLE   66  63  88 E12       29.99F
APPLETON       CLOUDY    70  66  88 E10       29.94F
BENSON         LGT RAIN  68  64  88 E9        29.96S
ORTONVILLE     CLOUDY    70  64  83 E13       29.95R
MADISON        PTSUNNY   72  68  88 E10       29.94F
WILLMAR        CLOUDY    70  66  88 E8        29.98R
$$
MNZ033>034-036-042>043-049>051-058-059-231700-
   Central Minnesota

CITY           SKY/WX    TMP DP  RH WIND       PRES   REMARKS
ST CLOUD       CLOUDY    67  64  90 E9        29.99F
SAUK CENTRE    CLOUDY    64  63  94 NE8       30.00S
PAYNESVILLE    CLOUDY    63  63  99 N12       29.98F FOG
AITKIN         CLOUDY    68  63  83 NE8       30.03F
PINE RIVER     CLOUDY    64  63  94 E8        30.08S
BRAINERD       CLOUDY    64  62  93 E6        30.03S
STAPLES        CLOUDY    64  61  88 E6        30.02S
LONG PRAIRIE   CLOUDY    63  61  94 NE8       30.02S
LITTLE FALLS   CLOUDY    64  63  94 E7        30.01F
LITCHFIELD     CLOUDY    70  70 100 NE12      29.95F
BUFFALO        CLOUDY    66  64  93 NE7       29.98F FOG
MAPLE LAKE     CLOUDY    67  66  97 NE10      29.98F
$$
MNZ037-044-045-052-053-231700-
   East Central Minnesota

CITY           SKY/WX    TMP DP  RH WIND       PRES   REMARKS
PRINCETON      CLOUDY    66  64  94 NE7       30.01F
MORA           CLOUDY    64  63  94 E5        30.04F
CAMBRIDGE      CLOUDY    68  61  77 E5        29.99F
RUSH CITY      CLOUDY    67  65  91 NE3       30.01F
MOOSE LAKE     CLOUDY    64  61  88 NE7       30.03F
HINCKLEY       CLOUDY    68  64  88 E5        30.03F
CLOQUET        CLOUDY    64  61  88 E7        30.07S
MCGREGOR       CLOUDY    64  63  94 E8        30.06S
$$
MNZ071>073-080-081-089-090-097-098-231700-
   Southwest Minnesota

CITY           SKY/WX    TMP DP  RH WIND       PRES   REMARKS
MONTEVIDEO     DRIZZLE   70  68  94 SE12      29.95F
GRANITE FALLS  LGT RAIN  69  68  96 E9        29.96F
CANBY          CLOUDY    69  67  95 E9        29.95S FOG
MARSHALL       CLOUDY    70  64  83 E12       29.92F
REDWOOD FALLS  CLOUDY    70  69  97 NE5       29.94S FOG
OLIVIA         DRIZZLE   70  66  88 E6        29.96R
PIPESTONE      CLOUDY    73  68  83 SE7       29.93S
WINDOM         CLOUDY    73  70  88 E14G20    29.94R
WORTHINGTON      N/A     73  16  11 E13G21    29.94F
JACKSON        CLOUDY    73  68  83 SE12G17   29.95R
TRACY          CLOUDY    71  69  93 E9        29.94F
SLAYTON        LGT RAIN  71  70  96 E5        29.95S
$$
MNZ065>067-074>077-082>085-091>093-231700-
   South Central Minnesota

CITY           SKY/WX    TMP DP  RH WIND       PRES   REMARKS
MANKATO        CLOUDY    70  66  88 SE9       29.92R
NEW ULM        CLOUDY    72  72 100 SE6       29.92R
ST JAMES       CLOUDY    75  70  83 E9        29.92F
FAIRMONT       CLOUDY    63  63 100 SE7       29.92F
GLENCOE        LGT RAIN  70  67  91 E13       29.91F
FARIBAULT      RAIN      72  66  83 NE8       29.95F
OWATONNA       RAIN      70  68  94 E15       29.93F
WASECA         LGT RAIN  68  64  88 SE13G18   29.94F
ALBERT LEA     RAIN      70  70 100 NE6       29.92F
$$
MNZ078>079-086>088-094>096-231700-
   Southeast Minnesota

CITY           SKY/WX    TMP DP  RH WIND       PRES   REMARKS
ROCHESTER      RAIN      68  67  96 E6        30.00F FOG
RED WING       CLOUDY    72  68  88 E5        29.97F FOG
STANTON        RAIN      70  67  92 E7        29.96F VSB 1
DODGE CENTER   RAIN      70  68  94 E9        29.97F
WINONA         CLOUDY    73  72  94 CALM      29.99R
AUSTIN         RAIN      68  66  94 NE8       29.94F
PRESTON        TSTM      68  69 100 N7        30.01S
$$
ABBREVIATIONS USED IN REMARKS
   TC - TEMPERATURES IN CELSIUS
  WCI - WIND CHILL INDEX
   HX - HEAT INDEX
  VSB - VISIBILITY
$$


USA.gov is the U.S. government's official web portal to all federal, state and local government web resources and services.